IRIDIUM 33 DEB, 33966

Orbit data source: Space-Track

IRIDIUM 33 DEB, 33966 is space debris in LEO originally from a launch on Sun, 14 Sep 1997 UTC launched from the Tyuratam Missile And Space Complex (TTMTR). The debris from Iridium 33, an American commercial communications satellite, has been tracked extensively since its accidental collision with the defunct Russian satellite Cosmos 2251 in 2009. This event, occurring at high speed in low Earth orbit (LEO), generated thousands of pieces of space debris, significantly increasing the risk of further collisions. The Iridium 33 debris cloud has impacted space traffic management and orbital debris mitigation strategies, making it a subject of ongoing study in space situational awareness.

Loading next visibility...
Identifier
33966, 1997-051CB
Orbit
LEO
Country
Flag of USUS
Related business
Manufacturer
Unknown
Mission
Spacecraft
Bus & Motor
Unknown
Mass
Unknown
Launch date (UTC)
1997-09-14 (28 years ago)
Launch vehicle
Unknown
Launch site
Tyuratam Missile And Space Complex (TTMTR)
Object type
Payload
Rocket body
Debris
Shape & HBR
Unknown shape, 0.2 m
Radar Cross Section
Small (<0.1 m²)

Expand to show TLE details & history
Last TLE update: 7 hours ago

TLE from 7 hours ago
0 IRIDIUM 33 DEB
1 33966U 97051CB  26037.93894329  .00003341  00000-0  85972-3 0  9999
2 33966  86.3927  21.8939 0008772  32.0215  29.3582 14.49888533892565
Epoch: 2026-02-06T22:32Z
TLE epoch observation values (Epoch: 2026-02-06T22:32:04.700Z)
Latitude
61.31459°
Longitude
-86.61464°
Altitude
731.154 km
Speed
7.498 km/s
True Right ascension
01h 53m 53s
True Declination
61° 10' 08"
Sunlit
Object was in daylight at epoch
Visualization orbit readout
Latitude
Unknown
Longitude
Unknown
Altitude
Unknown
Speed
Unknown
Apparent Right ascension
Unknown
Apparent Declination
Unknown
Sunlit
N/A
Visualization observer readout
Local Sidereal Time
08:00:42
Azimuth
Unknown
Elevation
Unknown
Doppler factor
Unknown
Orbital elements
Apogee altitude
729.184 km
Perigee altitude
716.726 km
Semi-major axis
7,101.092 km
Eccentricity
0.00088
Inclination
86.3927°
RAAN
21.8939°
Arg. of periapsis
32.0215°
True anomaly
29.40753°
Mean anomaly
29.3582°
Eccentric anomaly
29.38286°
Mean motion
3.62707 °/min
Orbital period
99.25 mins
BSTAR
0.00085972
Loading maneuver chart data...
Computing Atmospheric mass density...

Documentation

Showing up to 5 results
|